SAS669 EKCH-EDDV

Flight info

Callsign SAS669
Flight time 0h 52m
Altitude 28000
Route NEXEN T503 GIMRU DCT MICOS DCT ELSOB/N0423F290 N850 NIE NIE1R
Aircraft A319/M-A1B1D1O1S2/LB1

Departure

Time 2026-05-03 23:42
Airport Copenhagen Kastrup Airport (EKCH)

Arrival

Time 2026-05-04 00:34
Airport Hannover Airport (EDDV)
Time Latitude Longitude Altitude Speed Heading
2026-05-03 23:17 55.62649 12.64552 24 ft 0 kts 281°
2026-05-03 23:35 55.62648 12.64562 24 ft 4 kts 281°
2026-05-03 23:35 55.62642 12.64607 26 ft 2 kts 281°
2026-05-03 23:36 55.62640 12.64644 26 ft 4 kts 248°
2026-05-03 23:36 55.62656 12.64670 28 ft 3 kts 191°
2026-05-03 23:36 55.62644 12.64666 26 ft 4 kts 191°
2026-05-03 23:36 55.62620 12.64657 26 ft 2 kts 191°
2026-05-03 23:37 55.62619 12.64657 25 ft 0 kts 191°
2026-05-03 23:38 55.62618 12.64657 25 ft 1 kts 191°
2026-05-03 23:38 55.62596 12.64653 24 ft 5 kts 183°
2026-05-03 23:39 55.62544 12.64652 24 ft 10 kts 179°
2026-05-03 23:39 55.62461 12.64668 25 ft 14 kts 171°
2026-05-03 23:39 55.62351 12.64670 24 ft 18 kts 192°
2026-05-03 23:39 55.62268 12.64474 25 ft 24 kts 246°
2026-05-03 23:40 55.62134 12.64288 23 ft 22 kts 205°
2026-05-03 23:40 55.62039 12.64209 24 ft 15 kts 205°
2026-05-03 23:40 55.61929 12.64117 24 ft 20 kts 205°
2026-05-03 23:40 55.61780 12.64078 24 ft 25 kts 176°
2026-05-03 23:41 55.61665 12.64092 27 ft 10 kts 178°
2026-05-03 23:41 55.61591 12.64019 27 ft 21 kts 222°
2026-05-03 23:41 55.61298 12.63564 27 ft 90 kts 221°
2026-05-03 23:41 55.60677 12.62601 26 ft 145 kts 221°
2026-05-03 23:42 55.59790 12.61266 430 ft 172 kts 222°
2026-05-03 23:42 55.58891 12.59904 1376 ft 171 kts 222°
2026-05-03 23:42 55.57935 12.58406 1715 ft 196 kts 223°
2026-05-03 23:42 55.56850 12.56719 2190 ft 220 kts 222°
2026-05-03 23:43 55.55582 12.55010 2909 ft 235 kts 218°
2026-05-03 23:43 55.54227 12.53340 3933 ft 239 kts 217°
2026-05-03 23:43 55.52847 12.51684 4997 ft 241 kts 217°
2026-05-03 23:43 55.51453 12.50012 5992 ft 243 kts 217°
2026-05-03 23:44 55.50052 12.48313 6958 ft 246 kts 216°
2026-05-03 23:44 55.48641 12.46600 7904 ft 248 kts 216°
2026-05-03 23:44 55.47212 12.44867 8826 ft 251 kts 216°
2026-05-03 23:44 55.45770 12.43114 9780 ft 253 kts 216°
2026-05-03 23:45 55.44288 12.41309 10342 ft 269 kts 216°
2026-05-03 23:45 55.42686 12.39354 10719 ft 289 kts 216°
2026-05-03 23:45 55.41010 12.37318 11386 ft 296 kts 216°
2026-05-03 23:45 55.39304 12.35248 12128 ft 300 kts 216°
2026-05-03 23:46 55.37573 12.33149 12878 ft 304 kts 216°
2026-05-03 23:46 55.35819 12.31019 13632 ft 309 kts 216°
2026-05-03 23:46 55.34039 12.28859 14314 ft 313 kts 216°
2026-05-03 23:46 55.32242 12.26677 15010 ft 316 kts 216°
2026-05-03 23:47 55.30422 12.24470 15715 ft 320 kts 216°
2026-05-03 23:47 55.28584 12.22234 16410 ft 323 kts 216°
2026-05-03 23:47 55.26720 12.19971 17090 ft 328 kts 216°
2026-05-03 23:47 55.24830 12.17687 17811 ft 332 kts 216°
2026-05-03 23:48 55.22908 12.15390 18482 ft 336 kts 216°
2026-05-03 23:48 55.20967 12.13077 19113 ft 339 kts 216°
2026-05-03 23:48 55.19023 12.10725 19764 ft 341 kts 217°
2026-05-03 23:48 55.17096 12.08286 20431 ft 342 kts 217°
2026-05-03 23:49 55.15184 12.05813 21120 ft 342 kts 218°
2026-05-03 23:49 55.13273 12.03327 21745 ft 343 kts 218°
2026-05-03 23:49 55.11355 12.00835 22346 ft 345 kts 217°
2026-05-03 23:49 55.09419 11.98331 22947 ft 347 kts 217°
2026-05-03 23:50 55.07491 11.95861 23506 ft 349 kts 217°
2026-05-03 23:50 55.06165 11.94173 23842 ft 350 kts 217°
2026-05-03 23:50 55.03544 11.90846 24462 ft 353 kts 217°
2026-05-03 23:50 55.01550 11.88321 24923 ft 356 kts 217°
2026-05-03 23:51 54.99538 11.85779 25376 ft 358 kts 217°
2026-05-03 23:51 54.97513 11.83227 25821 ft 360 kts 217°
2026-05-03 23:51 54.95480 11.80655 26264 ft 363 kts 217°
2026-05-03 23:51 54.93431 11.78065 26696 ft 365 kts 217°
2026-05-03 23:52 54.91369 11.75464 27145 ft 367 kts 217°
2026-05-03 23:52 54.89294 11.72855 27582 ft 369 kts 217°
2026-05-03 23:52 54.87206 11.70226 27815 ft 371 kts 217°
2026-05-03 23:52 54.85154 11.67650 27853 ft 357 kts 217°
2026-05-03 23:53 54.83186 11.65177 27848 ft 343 kts 217°
2026-05-03 23:53 54.81278 11.62779 27854 ft 336 kts 217°
2026-05-03 23:53 54.79393 11.60416 27852 ft 334 kts 217°
2026-05-03 23:53 54.77510 11.58060 27855 ft 333 kts 217°
2026-05-03 23:54 54.75631 11.55712 27853 ft 333 kts 217°
2026-05-03 23:54 54.73757 11.53366 27853 ft 333 kts 217°
2026-05-03 23:54 54.71878 11.51024 27847 ft 333 kts 216°
2026-05-03 23:54 54.69999 11.48694 27851 ft 333 kts 216°
2026-05-03 23:55 54.68119 11.46363 27855 ft 332 kts 216°
2026-05-03 23:55 54.66240 11.44034 27853 ft 332 kts 216°
2026-05-03 23:55 54.64363 11.41709 27852 ft 332 kts 216°
2026-05-03 23:55 54.62486 11.39385 27858 ft 332 kts 216°
2026-05-03 23:56 54.60608 11.37063 27857 ft 332 kts 216°
2026-05-03 23:56 54.58728 11.34742 27897 ft 332 kts 216°
2026-05-03 23:56 54.56853 11.32427 27894 ft 331 kts 216°
2026-05-03 23:56 54.54982 11.30120 27890 ft 330 kts 216°
2026-05-03 23:57 54.53111 11.27829 27891 ft 330 kts 216°
2026-05-03 23:57 54.51239 11.25546 27889 ft 329 kts 216°
2026-05-03 23:57 54.49366 11.23275 27887 ft 329 kts 216°
2026-05-03 23:57 54.47495 11.21009 27866 ft 329 kts 216°
2026-05-03 23:58 54.45626 11.18747 27860 ft 329 kts 216°
2026-05-03 23:58 54.43757 11.16485 27864 ft 328 kts 216°
2026-05-03 23:58 54.41891 11.14226 27862 ft 328 kts 216°
2026-05-03 23:58 54.40030 11.11966 27860 ft 328 kts 216°
2026-05-03 23:59 54.38169 11.09706 27865 ft 328 kts 216°
2026-05-03 23:59 54.36306 11.07453 27858 ft 328 kts 216°
2026-05-03 23:59 54.34441 11.05202 27872 ft 328 kts 216°
2026-05-03 23:59 54.32576 11.02953 27865 ft 328 kts 216°
2026-05-04 00:00 54.30775 11.00573 27866 ft 327 kts 223°
2026-05-04 00:00 54.29286 10.97692 27867 ft 328 kts 231°
2026-05-04 00:00 54.27901 10.94583 27876 ft 328 kts 231°
2026-05-04 00:00 54.26516 10.91475 27869 ft 328 kts 231°
2026-05-04 00:01 54.25129 10.88370 27861 ft 328 kts 231°
2026-05-04 00:01 54.23739 10.85271 27869 ft 328 kts 230°
2026-05-04 00:01 54.22351 10.82174 27862 ft 329 kts 231°
2026-05-04 00:01 54.20960 10.79071 27867 ft 329 kts 230°
2026-05-04 00:02 54.19569 10.75975 27866 ft 329 kts 230°
2026-05-04 00:02 54.18175 10.72879 27869 ft 329 kts 230°
2026-05-04 00:02 54.16779 10.69784 27871 ft 329 kts 230°
2026-05-04 00:02 54.15385 10.66690 27873 ft 329 kts 230°
2026-05-04 00:03 54.13991 10.63593 27875 ft 329 kts 230°
2026-05-04 00:03 54.12596 10.60494 27917 ft 330 kts 231°
2026-05-04 00:03 54.11198 10.57397 27916 ft 330 kts 231°
2026-05-04 00:03 54.09800 10.54306 27903 ft 329 kts 230°
2026-05-04 00:04 54.08402 10.51223 27901 ft 329 kts 230°
2026-05-04 00:04 54.07003 10.48144 27903 ft 329 kts 230°
2026-05-04 00:04 54.05604 10.45070 27890 ft 329 kts 230°
2026-05-04 00:04 54.04204 10.41996 27876 ft 329 kts 230°
2026-05-04 00:05 54.02801 10.38919 27875 ft 329 kts 230°
2026-05-04 00:05 54.01399 10.35849 27874 ft 329 kts 230°
2026-05-04 00:05 53.99996 10.32778 27877 ft 329 kts 230°
2026-05-04 00:05 53.98591 10.29706 27880 ft 329 kts 230°
2026-05-04 00:06 53.97186 10.26636 27879 ft 329 kts 230°
2026-05-04 00:06 53.95781 10.23568 27879 ft 329 kts 230°
2026-05-04 00:06 53.94382 10.20523 27881 ft 329 kts 230°
2026-05-04 00:06 53.92971 10.17456 27883 ft 330 kts 230°
2026-05-04 00:07 53.91581 10.14435 27895 ft 330 kts 230°
2026-05-04 00:07 53.90168 10.11368 27893 ft 330 kts 230°
2026-05-04 00:07 53.88755 10.08308 27896 ft 330 kts 230°
2026-05-04 00:07 53.87340 10.05250 27897 ft 330 kts 230°
2026-05-04 00:08 53.85924 10.02198 27897 ft 330 kts 230°
2026-05-04 00:08 53.84507 9.99140 27898 ft 330 kts 230°
2026-05-04 00:08 53.83092 9.96088 27880 ft 330 kts 230°
2026-05-04 00:08 53.81677 9.93035 27887 ft 330 kts 230°
2026-05-04 00:09 53.80260 9.89985 27884 ft 330 kts 230°
2026-05-04 00:09 53.78838 9.86934 27887 ft 330 kts 230°
2026-05-04 00:09 53.77416 9.83887 27892 ft 330 kts 230°
2026-05-04 00:09 53.75992 9.80838 27891 ft 330 kts 230°
2026-05-04 00:10 53.74568 9.77786 27895 ft 331 kts 230°
2026-05-04 00:10 53.73143 9.74734 27893 ft 331 kts 230°
2026-05-04 00:10 53.71719 9.71689 27900 ft 331 kts 230°
2026-05-04 00:10 53.70291 9.68643 27897 ft 331 kts 230°
2026-05-04 00:11 53.68861 9.65605 27904 ft 331 kts 230°
2026-05-04 00:11 53.67406 9.62606 27904 ft 330 kts 225°
2026-05-04 00:11 53.65656 9.60125 27903 ft 329 kts 213°
2026-05-04 00:11 53.63608 9.58397 27902 ft 331 kts 201°
2026-05-04 00:12 53.61359 9.57509 27897 ft 335 kts 190°
2026-05-04 00:12 53.59013 9.57217 27674 ft 339 kts 188°
2026-05-04 00:12 53.56653 9.56948 27410 ft 341 kts 188°
2026-05-04 00:12 53.54283 9.56676 27143 ft 342 kts 188°
2026-05-04 00:13 53.51906 9.56385 26889 ft 343 kts 189°
2026-05-04 00:13 53.49531 9.55963 26631 ft 343 kts 191°
2026-05-04 00:13 53.47160 9.55441 26376 ft 344 kts 192°
2026-05-04 00:13 53.44784 9.54879 26123 ft 345 kts 192°
2026-05-04 00:14 53.42399 9.54313 25874 ft 347 kts 192°
2026-05-04 00:14 53.40817 9.53943 25709 ft 347 kts 192°
2026-05-04 00:14 53.38417 9.53399 25463 ft 349 kts 191°
2026-05-04 00:14 53.36006 9.52871 25215 ft 350 kts 191°
2026-05-04 00:15 53.32795 9.52184 24884 ft 352 kts 191°
2026-05-04 00:15 53.30358 9.51665 24643 ft 354 kts 191°
2026-05-04 00:15 53.28706 9.51313 24482 ft 355 kts 191°
2026-05-04 00:15 53.26257 9.50789 24244 ft 354 kts 191°
2026-05-04 00:16 53.23824 9.50269 23865 ft 351 kts 191°
2026-05-04 00:16 53.21402 9.49751 23403 ft 350 kts 191°
2026-05-04 00:16 53.18992 9.49233 22916 ft 347 kts 191°
2026-05-04 00:16 53.16611 9.48719 22491 ft 343 kts 191°
2026-05-04 00:17 53.14259 9.48213 22054 ft 339 kts 191°
2026-05-04 00:17 53.11933 9.47721 21617 ft 335 kts 191°
2026-05-04 00:17 53.09636 9.47237 21182 ft 332 kts 191°
2026-05-04 00:17 53.07353 9.46755 20740 ft 330 kts 191°
2026-05-04 00:18 53.05084 9.46272 20304 ft 328 kts 191°
2026-05-04 00:18 53.02847 9.45795 19847 ft 328 kts 191°
2026-05-04 00:18 53.00589 9.45314 19390 ft 326 kts 191°
2026-05-04 00:18 52.98340 9.44833 18915 ft 326 kts 191°
2026-05-04 00:19 52.96094 9.44352 18431 ft 325 kts 191°
2026-05-04 00:19 52.93847 9.43872 17912 ft 325 kts 191°
2026-05-04 00:19 52.91605 9.43389 17414 ft 324 kts 191°
2026-05-04 00:19 52.89373 9.42907 16926 ft 323 kts 191°
2026-05-04 00:20 52.87146 9.42430 16432 ft 322 kts 191°
2026-05-04 00:20 52.84935 9.41958 15957 ft 320 kts 191°
2026-05-04 00:20 52.82732 9.41488 15473 ft 318 kts 191°
2026-05-04 00:20 52.80538 9.41023 14988 ft 318 kts 191°
2026-05-04 00:21 52.78349 9.40557 14504 ft 317 kts 191°
2026-05-04 00:21 52.76168 9.40092 14017 ft 316 kts 191°
2026-05-04 00:21 52.73987 9.39629 13503 ft 316 kts 190°
2026-05-04 00:21 52.71815 9.39169 13001 ft 314 kts 191°
2026-05-04 00:22 52.69655 9.38714 12515 ft 311 kts 191°
2026-05-04 00:22 52.67517 9.38265 12033 ft 309 kts 191°
2026-05-04 00:22 52.65360 9.38283 11550 ft 314 kts 173°
2026-05-04 00:22 52.63310 9.39595 11045 ft 322 kts 152°
2026-05-04 00:23 52.61664 9.42135 10542 ft 332 kts 129°
2026-05-04 00:23 52.60675 9.45578 10240 ft 331 kts 113°
2026-05-04 00:23 52.59902 9.49080 10115 ft 319 kts 114°
2026-05-04 00:23 52.59141 9.52442 9953 ft 310 kts 115°
2026-05-04 00:24 52.58388 9.55730 9753 ft 304 kts 115°
2026-05-04 00:24 52.57642 9.58963 9411 ft 302 kts 115°
2026-05-04 00:24 52.56896 9.62173 9050 ft 300 kts 115°
2026-05-04 00:24 52.56151 9.65371 8694 ft 299 kts 115°
2026-05-04 00:25 52.55414 9.68554 8344 ft 298 kts 114°
2026-05-04 00:25 52.54687 9.71731 8006 ft 297 kts 113°
2026-05-04 00:25 52.54258 9.75042 7721 ft 296 kts 96°
2026-05-04 00:25 52.54158 9.78379 7409 ft 290 kts 95°
2026-05-04 00:26 52.54068 9.81619 7049 ft 286 kts 95°
2026-05-04 00:26 52.53975 9.84874 6655 ft 284 kts 95°
2026-05-04 00:26 52.53883 9.88087 6403 ft 276 kts 94°
2026-05-04 00:26 52.53794 9.91198 6149 ft 269 kts 94°
2026-05-04 00:27 52.53704 9.94235 5740 ft 265 kts 95°
2026-05-04 00:27 52.53579 9.97239 5323 ft 260 kts 102°
2026-05-04 00:27 52.52808 9.99782 4921 ft 245 kts 141°
2026-05-04 00:27 52.51385 10.01148 4449 ft 235 kts 165°
2026-05-04 00:28 52.49828 10.01921 4013 ft 231 kts 171°
2026-05-04 00:28 52.48297 10.02458 3722 ft 221 kts 180°
2026-05-04 00:28 52.46917 10.01902 3561 ft 195 kts 218°
2026-05-04 00:28 52.46074 10.00335 3440 ft 178 kts 248°
2026-05-04 00:29 52.45858 9.98409 3353 ft 168 kts 271°
2026-05-04 00:29 52.45917 9.96579 3256 ft 155 kts 271°
2026-05-04 00:29 52.45968 9.94872 3125 ft 147 kts 271°
2026-05-04 00:29 52.46017 9.93203 2952 ft 146 kts 272°
2026-05-04 00:30 52.46067 9.91541 2768 ft 146 kts 271°
2026-05-04 00:30 52.46116 9.89880 2579 ft 146 kts 271°
2026-05-04 00:30 52.46165 9.88227 2386 ft 145 kts 272°
2026-05-04 00:30 52.46214 9.86585 2192 ft 144 kts 271°
2026-05-04 00:31 52.46262 9.84951 2001 ft 143 kts 272°
2026-05-04 00:31 52.46310 9.83328 1803 ft 141 kts 272°
2026-05-04 00:31 52.46355 9.81790 1626 ft 129 kts 272°
2026-05-04 00:31 52.46397 9.80347 1451 ft 125 kts 272°
2026-05-04 00:32 52.46437 9.78938 1282 ft 123 kts 271°
2026-05-04 00:32 52.46478 9.77538 1116 ft 122 kts 270°
2026-05-04 00:32 52.46519 9.76146 957 ft 123 kts 271°
2026-05-04 00:32 52.46558 9.74745 767 ft 122 kts 270°
2026-05-04 00:33 52.46595 9.73350 605 ft 123 kts 270°
2026-05-04 00:33 52.46675 9.70558 272 ft 122 kts 269°
2026-05-04 00:33 52.46715 9.69190 177 ft 110 kts 271°
2026-05-04 00:34 52.46743 9.68170 176 ft 67 kts 273°
2026-05-04 00:34 52.46761 9.67567 174 ft 52 kts 272°
2026-05-04 00:34 52.46743 9.67077 175 ft 35 kts 253°
2026-05-04 00:34 52.46691 9.66781 177 ft 19 kts 254°
2026-05-04 00:35 52.46600 9.66675 178 ft 21 kts 163°
2026-05-04 00:35 52.46555 9.66916 178 ft 26 kts 93°
2026-05-04 00:35 52.46545 9.67251 178 ft 32 kts 93°
2026-05-04 00:35 52.46540 9.67464 178 ft 9 kts 92°
2026-05-04 00:36 52.46536 9.67591 178 ft 14 kts 92°
2026-05-04 00:36 52.46531 9.67774 178 ft 19 kts 93°
2026-05-04 00:36 52.46525 9.68016 178 ft 24 kts 92°
2026-05-04 00:36 52.46508 9.68270 178 ft 17 kts 109°
2026-05-04 00:37 52.46424 9.68436 178 ft 22 kts 143°
2026-05-04 00:37 52.46284 9.68612 179 ft 26 kts 142°
2026-05-04 00:37 52.46178 9.68744 179 ft 16 kts 142°
2026-05-04 00:37 52.46088 9.68858 179 ft 16 kts 142°
2026-05-04 00:38 52.45998 9.68971 179 ft 16 kts 143°
2026-05-04 00:38 52.45911 9.69087 179 ft 15 kts 126°
2026-05-04 00:38 52.45943 9.69189 179 ft 9 kts 25°
2026-05-04 00:38 52.45992 9.69240 179 ft 8 kts 53°
2026-05-04 00:39 52.45994 9.69307 179 ft 3 kts 93°
2026-05-04 00:39 52.45994 9.69330 179 ft 2 kts 94°
2026-05-04 00:39 52.45993 9.69339 179 ft 0 kts 94°